Regional Weather Roundup
Issued by NWS

Home | Current Version | Previous Version | Graphics & Text | Print | Product List | Glossary On
Versions: 1 2 3 4 5 6 7 8 9 10 11 12 13 14 15 16 17 18 19 20 21 22 23 24 25 26 27 28 29 30 31 32 33 34 35 36 37 38 39 40 41 42 43 44 45 46 47 48 49 50
000
ASUS44 KMEG 051110
RWRTN
TENNESSEE HOURLY STATE WEATHER ROUNDUP
NATIONAL WEATHER SERVICE MEMPHIS TN
600 AM CDT SUN JUL 05 2015

TNZ002-004-019-021-049-052-054-088>092-051200-
WEST TENNESSEE

CITY           SKY/WX    TMP DP  RH WIND       PRES   REMARKS
MEMPHIS INTL   MOCLDY    70  68  93 SE3       30.07R
NWS MEMPHIS      N/A     68 N/A N/A MISG        N/A
JACKSON        CLOUDY    69  67  93 CALM      30.07R
DYERSBURG        N/A    N/A N/A N/A MISG        N/A
PARIS          CLOUDY    70  70 100 CALM      30.08R
LEXINGTON      CLOUDY    68  66  94 CALM      30.08R
$$

TNZ008-025-027-028-033-062-065-066-051200-
NORTH MIDDLE TENNESSEE

CITY           SKY/WX    TMP DP  RH WIND       PRES   REMARKS
NASHVILLE      CLOUDY    69  69 100 W5        30.06R
CLARKSVILLE    CLOUDY    70  69  97 CALM      30.06R FOG
SMYRNA         CLOUDY    69  68  97 NW3       30.06R
COOKEVILLE       N/A     70  70 100 NW38G192  30.05R
CROSSVILLE     CLOUDY    68  64  87 CALM      30.07S
$$

TNZ061-075-076-078-094-096-097-051200-
SOUTH MIDDLE TENNESSEE

CITY           SKY/WX    TMP DP  RH WIND       PRES   REMARKS
FAYETTEVILLE     N/A     64  64 100 SW7       30.08S
TULLAHOMA      CLOUDY    64  64 100 W9        30.08R
MCMINNVILLE    CLOUDY    68  68 100 SW3       30.04S
COLUMBIA       MOCLDY    68  68 100 CALM      30.06R
SHELBYVILLE    CLOUDY    68  68 100 W9          N/A
$$

TNZ017-018-042-046-047-051200-
NORTHEAST TENNESSEE

CITY           SKY/WX    TMP DP  RH WIND       PRES   REMARKS
TRI CITIES     LGT RAIN  68  67  96 CALM      30.10S FOG
ELIZABETHTON   SUNNY     64  64 100 E3        30.11S
$$

TNZ012-013-036-069-073-074-051200-
CENTRAL EAST TENNESSEE

CITY           SKY/WX    TMP DP  RH WIND       PRES   REMARKS
KNOXVILLE      CLOUDY    68  67  96 E3        30.05R
OAK RIDGE      CLOUDY    69  67  93 E3        30.06F
GATLINBURG     CLOUDY    66  66 100 CALM      30.07R
MORRISTOWN     PTSUNNY   66  66 100 CALM      30.09S
$$

TNZ083-085-099-051200-
SOUTHEAST TENNESSEE

CITY           SKY/WX    TMP DP  RH WIND       PRES   REMARKS
CHATTANOOGA    CLOUDY    69  67  93 S8        30.07R FOG
$$

SKY/WX REPORTED AS FAIR MEANS FEW OR NO CLOUDS BELOW
12 THOUSAND FEET.




USA.gov is the U.S. government's official web portal to all federal, state and local government web resources and services.